This is the latest recevied weather packets stored in our database for station/object IA5FYI-13. If no packets are shown the sender has not sent any weather packets the latest 1 day(s).
| Time | Temp. | Humidity | Pressure | Rain* | Wind** | Luminosity | Snow |
|---|---|---|---|---|---|---|---|
| 1778028014 | 17.78° C | 92% | 1008.8 hPa | 25.4 mm | 7.6 m/s, 133° | - | - |
| 1778027710 | 17.78° C | 92% | 1009.1 hPa | 16.76 mm | 6.26 m/s, 171° | - | - |
| 1778027423 | 17.78° C | 91% | 1009.1 hPa | 8.38 mm | 8.49 m/s, 166° | - | - |
| 1778027110 | 17.78° C | 91% | 1009.5 hPa | 7.62 mm | 6.26 m/s, 183° | - | - |
| 1778026814 | 17.78° C | 91% | 1009.5 hPa | 5.08 mm | 4.02 m/s, 131° | - | - |
| 1778026513 | 17.78° C | 90% | 1009.5 hPa | 4.57 mm | 7.6 m/s, 132° | - | - |
| 1778026213 | 17.78° C | 90% | 1009.1 hPa | 3.81 mm | 4.47 m/s, 80° | - | - |
| 1778025909 | 17.78° C | 90% | 1009.5 hPa | 0 mm | 6.71 m/s, 153° | - | - |
| 1778025635 | 17.78° C | 90% | 1009.8 hPa | 38.61 mm | 5.36 m/s, 133° | - | - |
| 1778025310 | 17.78° C | 90% | 1009.8 hPa | 31.75 mm | 3.58 m/s, 131° | - | - |
| 1778025013 | 17.78° C | 90% | 1009.5 hPa | 21.84 mm | 5.36 m/s, 347° | - | - |
| 1778024713 | 17.78° C | 90% | 1009.5 hPa | 21.34 mm | 6.26 m/s, 148° | - | - |
| 1778024413 | 17.78° C | 90% | 1009.5 hPa | 21.34 mm | 5.36 m/s, 154° | - | - |
| 1778024109 | 17.78° C | 90% | 1009.5 hPa | 20.57 mm | 9.83 m/s, 184° | - | - |
| 1778023823 | 17.78° C | 90% | 1009.5 hPa | 17.78 mm | 8.49 m/s, 156° | - | - |
| 1778023509 | 17.78° C | 90% | 1009.5 hPa | 16.26 mm | 4.02 m/s, 163° | - | - |
| 1778023213 | 17.22° C | 90% | 1009.5 hPa | 12.45 mm | 7.6 m/s, 148° | - | - |
| 1778022912 | 17.78° C | 90% | 1009.5 hPa | 11.94 mm | 6.26 m/s, 148° | - | - |
| 1778022613 | 17.22° C | 90% | 1009.5 hPa | 8.38 mm | 7.15 m/s, 140° | - | - |
| 1778022035 | 17.22° C | 90% | 1009.8 hPa | 22.86 mm | 8.49 m/s, 156° | - | - |
| 1778021709 | 17.78° C | 90% | 1009.8 hPa | 22.86 mm | 4.92 m/s, 195° | - | - |
| 1778021412 | 17.22° C | 90% | 1009.5 hPa | 22.35 mm | 8.94 m/s, 123° | - | - |
| 1778021112 | 17.78° C | 91% | 1009.5 hPa | 21.08 mm | 7.6 m/s, 162° | - | - |
| 1778020813 | 17.78° C | 91% | 1009.8 hPa | 14.73 mm | 7.15 m/s, 164° | - | - |
| 1778020509 | 17.22° C | 91% | 1009.8 hPa | 7.11 mm | 8.05 m/s, 160° | - | - |
* Rain latest hour (hover to see other rain measurements)
** Current wind speed in m/s (hover to see current wind gust speed)